Date,TemperatureHighF,TemperatureAvgF,TemperatureLowF,DewpointHighF,DewpointAvgF,DewpointLowF,HumidityHigh,HumidityAvg,HumidityLow,PressureMaxIn,PressureMinIn,WindSpeedMaxMPH,WindSpeedAvgMPH,GustSpeedMaxMPH,PrecipitationSumIn
2013-1-1,45,40,35,42,35,29,89,83,74,30.29,30.03,10,6,18,0.01
2013-1-2,39,35,32,31,28,26,84,76,67,30.36,30.26,7,3,13,0.00
2013-1-3,48,40,32,30,28,26,81,64,44,30.48,30.34,8,3,13,0.00
2013-1-4,47,43,39,32,30,28,73,60,49,30.53,30.36,4,1,8,0.00
2013-1-5,50,44,39,38,36,32,87,74,60,30.36,30.21,6,2,13,0.00
2013-1-6,54,44,35,37,29,25,89,60,33,30.41,30.28,10,3,15,0.00
2013-1-7,54,44,32,33,29,23,71,55,40,30.34,30.09,10,3,14,0.00
2013-1-8,48,47,46,46,40,32,92,79,55,30.10,29.96,8,4,13,0.94
2013-1-9,56,53,48,54,51,46,93,92,91,30.13,29.93,21,10,30,1.29
2013-1-10,58,54,49,55,49,44,94,83,64,29.98,29.89,17,4,23,0.02
2013-1-11,69,60,49,61,49,43,87,70,42,29.93,29.74,10,4,16,0.00
2013-1-12,66,54,35,64,50,30,93,87,75,29.94,29.64,16,6,23,0.24
2013-1-13,41,35,30,30,23,18,79,63,49,30.29,29.93,14,9,26,0.00
2013-1-14,43,35,28,26,20,16,66,56,43,30.36,30.22,11,6,16,0.00
2013-1-15,37,34,29,29,24,19,87,68,54,30.25,30.16,10,6,17,0.03
2013-1-16,47,37,26,27,21,16,74,54,33,30.31,30.17,8,2,13,0.00
2013-1-17,58,47,35,35,29,23,70,52,34,30.50,30.25,10,4,17,0.00
2013-1-18,61,49,34,36,33,28,80,55,36,30.51,30.26,10,3,16,0.00
2013-1-19,64,52,41,46,40,34,85,66,45,30.26,30.12,7,3,13,0.00
2013-1-20,67,54,42,46,42,39,88,67,43,30.20,30.06,8,2,12,0.00
2013-1-21,56,48,40,43,32,24,79,56,44,30.29,30.11,9,3,18,0.00
2013-1-22,64,50,38,47,37,23,75,59,46,30.31,30.17,6,3,9,0.00
2013-1-23,73,62,52,55,52,47,83,70,53,30.26,30.10,8,3,12,0.00
2013-1-24,76,63,54,60,54,48,90,74,52,30.16,30.00,8,2,11,0.00
2013-1-25,55,49,45,49,43,37,92,80,68,30.20,30.00,7,4,11,0.00
2013-1-26,51,48,45,47,44,38,93,88,71,30.22,30.09,9,3,13,0.01
2013-1-27,74,62,48,63,56,46,94,83,60,30.09,29.90,9,5,18,0.01
2013-1-28,77,71,67,65,63,62,85,76,61,29.97,29.80,12,6,21,0.00
2013-1-29,77,66,54,65,58,29,91,75,37,29.81,29.41,16,7,28,0.44
2013-1-30,56,47,38,37,27,19,72,47,29,30.13,29.64,16,8,26,0.00
2013-1-31,68,51,36,30,24,20,69,40,17,30.32,30.08,14,3,23,0.00
2013-2-1,58,45,31,38,26,16,57,48,36,30.39,30.16,10,5,21,0.00
2013-2-2,66,56,47,44,37,28,79,51,25,30.31,30.13,9,3,13,0.00
2013-2-3,67,55,41,40,31,25,76,44,21,30.31,29.97,8,2,14,0.00
2013-2-4,70,62,56,56,48,27,86,62,30,29.97,29.76,7,4,14,0.00
2013-2-5,64,59,56,59,56,54,94,90,81,30.00,29.85,10,4,15,0.00
2013-2-6,73,62,55,61,56,51,93,81,47,30.00,29.83,13,7,21,0.00
2013-2-7,78,64,54,59,53,41,90,71,29,30.08,29.77,16,7,25,0.01
2013-2-8,62,53,43,43,32,20,74,49,20,30.24,30.08,12,6,19,0.00
2013-2-9,59,50,46,57,45,36,93,82,55,30.13,29.73,15,10,23,0.00
2013-2-10,66,59,51,62,36,21,94,48,18,30.00,29.63,16,5,20,1.26
2013-2-11,55,51,48,39,32,25,70,48,35,30.15,29.98,13,8,22,0.00
2013-2-12,49,46,41,45,42,-100,91,86,70,30.03,29.84,15,5,21,0.41
2013-2-13,56,45,39,37,35,32,86,69,40,30.16,30.01,11,4,16,0.00
2013-2-14,67,52,38,40,35,28,86,57,23,30.10,29.99,5,1,9,0.00
2013-2-15,54,47,38,37,26,16,67,45,27,30.38,30.08,11,6,19,0.00
2013-2-16,55,43,33,29,25,22,68,50,31,30.42,30.17,6,2,10,0.00
2013-2-17,70,55,38,45,32,24,72,45,18,30.17,29.89,11,5,25,0.00
2013-2-18,76,61,52,56,43,29,78,55,28,30.10,29.73,16,8,29,0.00
2013-2-19,59,52,42,30,24,19,54,36,22,30.32,30.10,13,7,18,0.00
2013-2-20,52,44,40,38,35,28,80,72,39,30.20,29.77,19,13,30,0.11
2013-2-21,67,52,42,48,38,25,90,64,21,29.92,29.60,19,9,31,0.22
2013-2-22,47,40,31,36,26,20,79,59,44,30.15,29.91,9,5,16,0.00
2013-2-23,53,42,32,31,26,23,68,52,37,30.10,29.92,8,3,12,0.00
2013-2-24,68,54,38,43,36,29,72,53,30,29.93,29.59,15,7,23,0.00
2013-2-25,59,51,39,49,38,28,79,64,38,29.65,29.43,19,10,29,0.06
2013-2-26,56,47,40,33,31,30,73,57,38,29.90,29.65,16,8,28,0.00
2013-2-27,55,46,38,31,26,17,74,48,24,30.23,29.87,14,8,22,0.00
2013-2-28,52,40,35,29,27,25,74,60,37,30.30,30.22,13,6,21,0.00
2013-3-1,52,44,34,31,28,24,73,53,38,30.30,30.19,10,5,19,0.00
2013-3-2,53,41,31,29,23,17,70,51,30,30.43,30.23,10,5,17,0.00
2013-3-3,70,55,38,42,29,22,62,39,24,30.23,29.78,12,6,20,0.00
2013-3-4,87,68,55,48,42,26,62,43,11,29.78,29.55,16,5,24,0.00
2013-3-5,62,50,45,43,24,13,64,39,20,30.37,29.75,19,10,31,0.00
2013-3-6,59,48,37,27,18,9,52,33,14,30.46,30.20,8,4,16,0.00
2013-3-7,69,57,43,35,26,19,46,31,16,30.23,30.08,14,6,22,0.00
2013-3-8,63,58,54,55,49,35,82,73,41,30.17,29.96,12,8,18,0.01
2013-3-9,69,63,60,64,58,54,93,84,75,29.97,29.62,12,7,21,1.21
2013-3-10,60,51,42,57,38,29,93,64,48,30.08,29.69,17,8,27,0.19
2013-3-11,58,45,35,32,25,14,82,50,20,30.13,30.00,11,4,18,0.00
2013-3-12,64,54,40,30,25,19,61,35,21,30.29,30.02,14,4,22,0.00
2013-3-13,68,58,47,36,32,29,56,39,25,30.43,30.29,10,4,15,0.00
2013-3-14,77,63,50,46,39,30,57,42,30,30.33,30.14,9,4,19,0.00
2013-3-15,81,68,56,53,47,41,78,50,26,30.15,29.85,9,4,20,0.00
2013-3-16,80,70,58,58,53,47,80,57,42,29.85,29.65,12,7,26,0.00
2013-3-17,71,67,60,61,54,47,83,65,49,29.75,29.63,11,5,20,0.00
2013-3-18,68,62,57,62,46,37,88,59,40,29.99,29.60,13,6,18,0.00
2013-3-19,66,58,48,42,36,30,67,45,32,30.12,29.93,14,8,22,0.00
2013-3-20,65,58,49,35,30,22,57,37,20,30.29,30.01,11,4,15,0.00
2013-3-21,69,60,52,56,41,27,73,50,35,30.01,29.54,14,9,26,0.00
2013-3-22,66,53,46,60,48,41,89,82,64,29.84,29.53,11,6,20,0.00
2013-3-23,53,49,46,48,45,43,92,87,80,29.85,29.66,14,4,23,0.11
2013-3-24,51,45,38,46,28,17,90,54,31,30.18,29.81,18,11,28,0.01
2013-3-25,52,43,31,23,18,12,68,39,21,30.41,30.18,14,7,25,0.00
2013-3-26,56,45,34,24,19,14,52,36,22,30.51,30.30,6,2,12,0.00
2013-3-27,69,56,42,42,31,20,50,39,27,30.31,30.07,12,6,20,0.00
2013-3-28,69,62,51,56,50,41,79,66,50,30.20,30.06,11,6,19,0.00
2013-3-29,76,67,60,58,56,54,83,68,50,30.16,29.98,12,6,18,0.00
2013-3-30,77,67,56,63,59,53,92,76,57,30.08,29.85,13,4,19,0.82
2013-3-31,73,67,60,62,55,47,90,69,44,29.96,29.76,13,5,19,0.03
2013-4-1,78,67,52,52,47,43,83,52,30,30.05,29.91,8,3,13,0.00
2013-4-2,69,65,52,62,56,41,88,74,53,29.99,29.86,21,7,31,0.02
2013-4-3,54,48,43,47,44,40,91,85,67,30.15,29.92,21,6,31,0.73
2013-4-4,50,46,42,41,40,38,91,80,69,30.21,30.10,11,5,18,0.07
2013-4-5,69,55,40,48,42,37,89,66,41,30.25,30.02,8,3,11,0.00
2013-4-6,76,65,56,58,51,42,77,61,44,30.02,29.81,11,6,20,0.00
2013-4-7,73,67,62,61,58,55,83,75,66,29.88,29.70,14,8,28,0.00
2013-4-8,74,70,66,64,61,58,80,73,68,29.73,29.63,14,8,24,0.00
2013-4-9,82,74,67,67,64,61,86,71,54,29.68,29.58,15,9,24,0.00
2013-4-10,74,47,40,67,42,35,90,82,60,29.98,29.66,14,9,26,0.49
2013-4-11,61,48,40,40,32,26,76,55,33,29.98,29.81,12,4,17,0.00
2013-4-12,77,60,44,46,42,37,85,54,26,30.00,29.85,7,2,11,0.00
2013-4-13,76,68,55,48,46,41,70,45,32,29.98,29.75,13,6,22,0.00
2013-4-14,81,70,58,64,57,47,81,65,50,29.75,29.51,13,6,21,0.00
2013-4-15,86,77,68,67,65,64,89,68,51,29.71,29.57,12,7,21,0.00
2013-4-16,86,78,72,68,65,62,81,66,50,29.86,29.71,16,8,24,0.00
2013-4-17,84,77,72,70,67,66,90,73,57,29.84,29.57,17,11,30,0.00
2013-4-18,76,55,46,70,45,32,91,70,46,30.14,29.51,18,10,33,1.30
2013-4-19,62,51,39,39,29,21,76,47,23,30.28,30.13,13,5,21,0.00
2013-4-20,70,59,45,37,32,25,64,38,19,30.19,30.00,14,5,23,0.00
2013-4-21,70,60,49,49,45,34,75,58,41,30.19,30.04,11,5,19,0.00
2013-4-22,77,67,55,58,52,45,76,59,49,30.09,29.82,13,7,23,0.00
2013-4-23,69,55,42,61,49,37,89,81,65,30.18,29.76,12,8,20,0.04
2013-4-24,60,49,38,37,33,30,85,58,34,30.32,30.17,12,6,20,0.03
2013-4-25,72,62,51,44,37,30,53,41,27,30.33,30.12,11,6,16,0.00
2013-4-26,77,67,60,66,54,42,76,65,45,30.15,29.94,12,7,19,0.00
2013-4-27,73,68,63,65,58,54,87,72,54,30.09,29.94,9,4,14,0.00
2013-4-28,82,67,55,64,58,52,89,73,52,30.01,29.83,8,3,12,0.00
2013-4-29,85,75,61,66,60,55,89,62,37,29.88,29.75,11,4,18,0.00
2013-4-30,80,72,62,63,60,57,87,69,49,29.80,29.70,13,6,22,0.00
2013-5-1,81,72,65,67,63,60,89,73,50,29.92,29.75,13,6,19,0.00
2013-5-2,68,52,43,61,44,35,89,77,70,30.32,29.90,18,11,29,0.03
2013-5-3,65,53,40,36,30,21,78,47,20,30.31,30.01,15,8,27,0.00
2013-5-4,71,58,43,39,32,16,78,43,13,30.01,29.87,14,5,28,0.00
2013-5-5,67,57,47,46,41,37,69,56,43,30.14,30.01,10,6,20,0.00
2013-5-6,76,64,51,55,49,46,84,61,40,30.11,29.97,7,2,13,0.00
2013-5-7,83,73,59,54,52,49,74,49,30,30.04,29.89,8,3,14,0.00
2013-5-8,85,75,64,58,54,49,69,49,32,29.96,29.82,12,6,20,0.00
2013-5-9,77,69,66,66,62,57,92,81,50,29.95,29.82,9,4,14,0.25
2013-5-10,79,72,66,65,62,55,92,73,47,30.02,29.84,8,3,13,0.00
2013-5-11,79,71,62,57,50,41,77,51,26,30.14,29.99,11,5,19,0.00
2013-5-12,77,68,59,52,38,27,57,34,17,30.24,30.11,13,5,17,0.00
2013-5-13,87,73,57,51,45,39,59,39,23,30.21,30.07,8,3,17,0.00
2013-5-14,86,76,64,60,55,48,73,50,30,30.12,29.93,10,4,20,0.00
2013-5-15,76,71,62,68,65,59,92,81,60,30.00,29.69,20,8,27,0.49
2013-5-16,80,70,62,70,65,59,92,83,69,29.80,29.71,13,5,17,0.80
2013-5-17,90,80,72,72,71,69,93,75,54,29.81,29.72,9,5,14,0.00
2013-5-18,91,82,73,72,70,67,83,67,49,29.84,29.70,13,7,25,0.00
2013-5-19,89,81,71,70,67,63,82,64,51,29.79,29.61,14,9,25,0.00
2013-5-20,89,81,75,71,69,67,79,67,52,29.77,29.59,13,8,23,0.00
2013-5-21,83,72,61,71,65,58,92,79,63,29.84,29.62,16,5,26,0.59
2013-5-22,81,67,55,62,57,53,93,73,41,29.93,29.78,5,1,8,0.07
2013-5-23,85,78,72,72,64,58,82,64,59,30.02,29.81,11,3,16,0.00
2013-5-24,84,77,67,74,69,62,90,76,62,30.17,29.97,15,5,24,0.45
2013-5-25,82,72,67,70,66,63,91,84,63,30.15,30.02,15,5,24,0.41
2013-5-26,85,78,71,71,69,68,91,76,58,30.06,29.89,11,7,18,0.05
2013-5-27,85,78,72,70,67,66,82,70,56,29.96,29.75,14,9,22,0.00
2013-5-28,84,79,73,68,66,65,81,67,54,29.86,29.71,19,11,32,0.00
2013-5-29,82,76,71,72,69,65,88,79,69,29.79,29.67,26,11,37,0.09
2013-5-30,87,80,74,73,70,68,84,74,58,29.77,29.66,15,10,24,0.00
2013-5-31,89,82,77,73,72,70,82,71,56,29.80,29.64,15,10,25,0.00
2013-6-1,86,80,77,73,70,62,79,72,59,29.92,29.68,17,9,28,0.00
2013-6-2,81,75,68,62,55,43,69,51,26,30.06,29.92,10,6,17,0.00
2013-6-3,88,76,64,60,57,51,76,54,29,29.98,29.81,8,4,12,0.00
2013-6-4,90,81,72,69,66,59,74,61,47,29.97,29.75,13,8,26,0.00
2013-6-5,90,82,74,70,68,66,79,63,46,29.90,29.72,17,5,24,0.00
2013-6-6,82,74,68,70,66,64,90,77,63,29.92,29.77,13,5,21,0.21
2013-6-7,83,74,65,64,56,49,87,58,33,29.99,29.87,9,4,16,0.00
2013-6-8,86,77,66,62,58,55,75,53,40,29.92,29.76,11,5,16,0.00
2013-6-9,88,78,68,70,66,60,92,68,48,29.92,29.79,12,5,18,0.92
2013-6-10,97,84,71,71,65,56,83,57,27,29.93,29.86,10,5,17,0.00
2013-6-11,92,84,76,73,69,66,83,62,47,29.99,29.88,11,6,17,0.00
2013-6-12,92,84,77,72,70,67,84,64,45,30.02,29.89,11,6,19,0.00
2013-6-13,97,87,78,71,68,63,75,56,36,30.02,29.85,9,5,14,0.00
2013-6-14,96,87,78,71,69,66,73,56,41,29.95,29.84,6,2,11,0.00
2013-6-15,89,80,72,75,69,-100,87,70,59,29.97,29.84,23,4,42,0.22
2013-6-16,94,85,76,74,71,68,87,66,45,29.98,29.83,9,4,0,0.00
2013-6-17,88,79,69,74,70,66,94,75,60,30.01,29.81,19,5,15,0.40
2013-6-18,84,77,70,74,70,66,90,79,59,29.98,29.84,12,4,14,0.04
2013-6-19,90,81,72,75,72,69,93,75,57,29.96,29.82,10,4,17,0.00
2013-6-20,94,85,77,74,70,66,87,63,42,30.00,29.88,11,7,19,0.00
2013-6-21,94,86,77,73,70,65,82,60,41,30.03,29.91,12,8,21,0.00
2013-6-22,93,84,76,73,70,68,82,63,44,30.00,29.84,13,8,20,0.00
2013-6-23,93,86,77,73,70,65,81,61,41,29.95,29.84,13,8,0,0.00
2013-6-24,97,87,77,72,68,61,83,56,32,29.99,29.84,14,8,21,0.00
2013-6-25,98,90,81,72,66,59,70,48,29,29.95,29.78,13,10,22,0.00
2013-6-26,99,90,80,71,68,62,71,49,34,29.92,29.80,12,8,26,0.00
2013-6-27,102,92,83,72,68,64,67,47,32,29.97,29.81,10,5,15,0.00
2013-6-28,104,92,83,68,63,57,54,39,25,29.90,29.77,10,4,17,0.00
2013-6-29,98,92,84,67,58,48,52,33,19,29.86,29.75,10,4,15,0.00
2013-6-30,91,86,81,62,54,48,50,34,24,29.91,29.77,12,6,21,0.00
2013-7-1,85,79,69,61,57,53,73,48,37,30.00,29.90,10,5,15,0.00
2013-7-2,86,79,67,58,54,48,70,43,28,30.06,29.97,9,4,17,0.00
2013-7-3,90,80,70,62,54,47,67,43,24,30.03,29.91,8,2,13,0.00
2013-7-4,93,82,73,65,60,52,69,49,26,29.98,29.86,12,5,22,0.00
2013-7-5,94,84,73,67,62,59,69,50,33,29.98,29.82,11,4,19,0.00
2013-7-6,94,85,75,69,63,58,69,49,32,29.92,29.81,10,5,17,0.00
2013-7-7,95,86,76,72,67,63,74,55,36,29.97,29.87,9,5,14,0.00
2013-7-8,94,85,77,74,71,65,84,64,45,30.05,29.94,10,6,17,0.00
2013-7-9,98,88,78,73,67,59,79,52,29,30.09,29.92,11,6,19,0.00
2013-7-10,99,91,82,73,69,64,74,51,33,30.02,29.85,11,5,18,0.00
2013-7-11,99,87,82,78,70,-100,73,58,37,29.93,29.83,15,4,25,0.32
2013-7-12,98,87,76,73,71,68,85,60,38,29.94,29.83,7,4,13,0.00
2013-7-13,98,88,80,72,68,60,72,53,38,29.96,29.83,10,6,14,0.00
2013-7-14,83,74,70,69,66,59,93,79,45,29.99,29.85,8,3,13,0.26
2013-7-15,73,70,66,71,68,65,96,93,87,30.07,29.93,6,2,10,0.67
2013-7-16,88,76,70,74,71,67,94,85,57,30.20,30.06,15,4,29,0.75
2013-7-17,88,79,70,75,72,68,95,80,57,30.20,30.10,10,4,17,0.21
2013-7-18,93,84,74,73,71,69,85,66,47,30.16,29.97,8,2,13,0.00
2013-7-19,93,82,76,76,72,68,89,75,46,30.01,29.89,12,3,21,0.24
2013-7-20,94,81,73,75,72,68,90,74,46,29.95,29.81,10,3,14,0.02
2013-7-21,94,84,74,76,72,69,91,70,47,29.90,29.80,11,5,16,0.02
2013-7-22,95,86,78,75,73,70,87,66,45,29.94,29.81,11,7,19,0.00
2013-7-23,96,88,80,77,73,66,83,62,43,29.93,29.77,11,7,19,0.00
2013-7-24,95,85,75,73,70,66,80,63,40,30.02,29.82,14,6,23,0.00
2013-7-25,94,85,76,76,72,70,84,67,47,30.02,29.93,8,4,12,0.00
2013-7-26,92,84,77,76,73,70,91,71,53,29.98,29.81,11,6,19,0.08
2013-7-27,89,80,73,71,67,61,84,66,40,30.00,29.87,10,6,17,0.01
2013-7-28,91,82,71,72,68,66,87,65,47,29.97,29.83,10,4,15,0.00
2013-7-29,94,86,77,75,71,63,87,64,37,29.96,29.87,11,7,18,0.00
2013-7-30,96,88,78,73,69,63,78,56,42,30.05,29.90,13,6,22,0.00
2013-7-31,101,90,80,74,69,64,67,51,36,30.01,29.86,9,4,16,0.00
2013-8-1,101,91,82,76,72,67,80,55,35,29.96,29.83,9,4,15,0.00
2013-8-2,100,91,81,71,68,64,72,50,33,29.91,29.81,11,5,18,0.00
2013-8-3,99,90,81,71,67,63,67,49,33,29.97,29.87,9,6,16,0.00
2013-8-4,98,89,81,72,69,64,72,53,36,30.03,29.88,8,5,13,0.00
2013-8-5,100,91,82,71,66,60,66,46,30,29.96,29.79,9,6,16,0.00
2013-8-6,102,92,80,70,65,60,68,44,26,29.87,29.74,10,6,18,0.00
2013-8-7,104,93,83,71,67,62,65,44,27,29.85,29.71,11,7,18,0.00
2013-8-8,101,92,82,73,67,60,71,47,27,29.84,29.72,11,5,21,0.00
2013-8-9,103,91,82,72,66,57,66,47,24,29.91,29.78,14,4,22,0.07
2013-8-10,98,88,79,74,70,65,82,58,38,30.02,29.91,7,4,15,0.06
2013-8-11,103,90,80,72,69,63,74,53,29,30.03,29.90,11,3,19,0.00
2013-8-12,98,90,80,73,69,65,73,52,35,30.01,29.87,8,4,12,0.00
2013-8-13,98,86,75,75,70,65,87,60,36,29.97,29.83,14,5,22,0.04
2013-8-14,88,81,78,76,73,69,87,77,57,30.00,29.90,9,3,18,0.04
2013-8-15,89,80,73,69,64,60,75,59,44,30.04,29.92,9,4,14,0.00
2013-8-16,88,79,69,68,63,61,87,60,42,30.04,29.93,16,4,22,0.01
2013-8-17,90,79,68,61,58,55,75,51,32,30.08,29.94,8,4,13,0.00
2013-8-18,91,82,71,66,61,57,74,52,33,30.08,29.95,6,3,11,0.00
2013-8-19,96,85,75,67,61,56,70,48,27,30.05,29.90,7,4,11,0.00
2013-8-20,96,86,75,66,60,54,64,43,26,30.01,29.91,7,3,14,0.00
2013-8-21,95,86,77,69,65,59,70,50,35,30.06,29.94,9,4,15,0.00
2013-8-22,98,90,81,72,67,63,69,50,32,30.05,29.88,8,3,13,0.00
2013-8-23,100,90,81,73,68,63,70,51,31,30.00,29.85,8,4,13,0.00
2013-8-24,100,90,81,72,67,61,66,48,30,30.03,29.91,10,4,16,0.00
2013-8-25,97,89,81,71,66,62,66,49,34,30.11,29.99,11,5,18,0.00
2013-8-26,96,87,78,70,66,58,74,53,29,30.13,30.00,12,6,21,0.00
2013-8-27,92,83,76,71,69,63,82,65,40,30.09,29.99,13,5,17,0.00
2013-8-28,97,87,76,72,66,62,76,53,32,30.08,29.95,7,3,11,0.00
2013-8-29,102,91,80,68,64,60,63,43,26,30.04,29.90,6,2,10,0.00
2013-8-30,103,92,81,69,64,58,61,41,24,29.97,29.82,8,3,13,0.00
2013-8-31,105,93,81,70,64,55,64,41,20,29.86,29.73,6,3,13,0.00
2013-9-1,104,92,82,72,66,59,69,44,24,29.84,29.71,8,4,20,0.00
2013-9-2,91,84,77,75,72,67,86,68,51,29.98,29.80,7,2,10,0.01
2013-9-3,98,89,78,72,63,52,64,45,24,29.97,29.85,7,3,11,0.22
2013-9-4,100,90,79,73,67,60,72,49,28,30.00,29.89,7,4,11,0.00
2013-9-5,100,90,80,73,67,59,73,50,27,30.07,29.94,6,3,11,0.00
2013-9-6,101,90,80,72,65,59,61,44,27,30.05,29.90,7,3,12,0.00
2013-9-7,99,89,80,72,67,59,73,50,29,30.00,29.86,11,4,19,0.00
2013-9-8,96,86,75,71,66,62,80,54,34,29.95,29.83,8,4,17,0.00
2013-9-9,94,87,78,71,67,62,75,54,36,29.97,29.86,10,5,17,0.00
2013-9-10,93,85,77,73,66,55,79,57,30,30.07,29.94,10,5,16,0.00
2013-9-11,95,86,76,71,68,64,75,56,40,30.10,29.96,10,3,16,0.00
2013-9-12,97,87,77,70,68,65,75,54,37,30.04,29.88,6,2,9,0.00
2013-9-13,96,88,80,71,68,65,68,54,37,29.93,29.79,11,4,17,0.00
2013-9-14,93,85,77,68,63,59,61,49,37,29.95,29.83,10,6,16,0.00
2013-9-15,95,86,76,70,65,59,61,50,40,30.00,29.90,8,3,14,0.00
2013-9-16,97,88,79,71,66,59,68,49,29,30.06,29.92,7,2,12,0.00
2013-9-17,92,87,81,70,67,64,63,51,40,30.04,29.90,6,3,11,0.00
2013-9-18,96,88,80,72,66,61,70,51,32,29.98,29.83,9,4,18,0.00
2013-9-19,91,84,73,73,70,64,91,65,46,29.96,29.83,16,4,25,1.47
2013-9-20,76,74,71,72,70,63,92,87,77,29.90,29.82,12,6,20,1.17
2013-9-21,84,74,64,63,50,40,77,47,24,29.97,29.84,11,6,17,0.00
2013-9-22,84,74,63,56,52,48,71,48,29,29.93,29.78,6,3,11,0.00
2013-9-23,86,75,64,60,54,51,69,50,33,29.86,29.73,10,4,15,0.00
2013-9-24,92,81,70,68,57,44,76,48,19,29.91,29.81,8,3,13,0.00
2013-9-25,95,81,66,60,52,42,71,39,17,29.88,29.74,8,2,10,0.00
2013-9-26,94,84,72,62,56,50,58,40,26,29.86,29.76,10,5,17,0.03
2013-9-27,88,81,71,72,67,59,74,63,47,29.91,29.80,11,7,18,0.00
2013-9-28,86,77,68,76,70,63,89,81,66,30.02,29.84,11,6,17,0.24
2013-9-29,82,73,64,63,56,46,82,58,31,30.04,29.89,8,4,12,0.00
2013-9-30,87,76,64,65,56,48,76,52,27,29.91,29.79,7,2,10,0.00
2013-10-1,90,79,71,71,68,63,90,70,41,29.92,29.81,9,5,15,0.00
2013-10-2,88,81,76,72,71,68,86,73,55,29.96,29.83,11,7,17,0.00
2013-10-3,91,82,76,73,71,68,85,70,49,29.91,29.77,11,8,19,0.00
2013-10-4,89,82,76,72,70,67,85,68,51,29.89,29.79,12,9,21,0.00
2013-10-5,82,66,53,70,57,43,88,75,55,30.09,29.83,12,7,21,0.41
2013-10-6,75,63,52,51,42,29,89,54,19,30.13,30.02,10,4,18,0.01
2013-10-7,82,69,56,49,41,32,70,39,18,30.16,30.04,6,2,10,0.00
2013-10-8,82,70,58,53,47,42,67,46,25,30.10,29.97,8,3,12,0.00
2013-10-9,83,72,61,58,54,52,76,56,36,30.07,29.95,10,6,16,0.02
2013-10-10,83,74,63,63,59,56,81,62,44,30.04,29.86,10,6,17,0.00
2013-10-11,86,77,70,71,68,61,85,73,60,29.92,29.79,11,7,19,0.00
2013-10-12,92,80,73,75,71,67,86,75,50,30.04,29.85,13,6,19,0.00
2013-10-13,77,73,71,70,68,67,90,84,77,30.18,30.02,9,4,13,0.00
2013-10-14,74,72,70,71,69,67,92,91,85,30.12,29.90,10,6,16,0.76
2013-10-15,78,68,55,72,64,52,91,88,81,30.06,29.88,10,6,18,0.51
2013-10-16,65,59,54,53,50,46,90,73,52,30.10,30.00,10,5,16,0.27
2013-10-17,72,61,50,50,46,43,83,61,35,30.14,29.98,6,2,10,0.00
2013-10-18,70,63,54,55,52,48,81,69,54,30.10,29.89,12,4,21,0.01
2013-10-19,66,54,44,48,40,36,82,62,35,30.22,30.08,13,5,18,0.00
2013-10-20,72,60,48,48,43,40,78,55,33,30.09,29.87,11,5,18,0.00
2013-10-21,73,63,56,62,53,47,80,71,56,30.10,29.90,10,5,17,0.06
2013-10-22,76,62,47,49,44,35,85,56,31,30.17,30.02,7,3,12,0.00
2013-10-23,83,69,54,52,48,42,77,51,24,30.12,30.02,7,2,10,0.00
2013-10-24,79,68,58,54,49,43,71,52,38,30.26,30.05,11,5,19,0.00
2013-10-25,69,60,52,48,45,41,76,58,45,30.40,30.24,12,6,17,0.00
2013-10-26,76,64,57,63,56,47,90,74,61,30.24,30.01,13,6,22,0.74
2013-10-27,68,63,61,59,58,57,91,83,71,30.12,30.00,6,1,8,0.00
2013-10-28,77,68,60,68,63,56,92,83,74,30.10,29.99,11,4,17,0.01
2013-10-29,77,74,71,70,68,66,87,83,79,30.07,29.97,11,8,20,0.00
2013-10-30,74,70,67,69,66,64,91,88,83,30.00,29.77,17,9,30,0.08
2013-10-31,74,69,60,69,55,39,92,63,30,29.86,29.66,16,7,26,0.01
2013-11-1,77,66,55,51,47,42,73,53,37,30.08,29.81,11,4,17,0.00
2013-11-2,68,60,52,46,38,32,73,47,27,30.29,30.08,11,5,17,0.00
2013-11-3,66,58,50,47,40,36,66,52,38,30.21,29.99,14,7,22,0.00
2013-11-4,62,59,56,59,53,47,91,81,63,30.10,29.99,11,6,18,0.46
2013-11-5,72,66,62,68,63,59,91,90,86,30.05,29.92,12,7,19,0.19
2013-11-6,73,57,49,69,49,39,90,75,54,30.36,29.94,13,7,24,0.22
2013-11-7,64,54,43,44,39,35,84,59,39,30.53,30.36,5,2,10,0.00
2013-11-8,66,58,49,46,42,36,79,57,34,30.39,30.13,10,4,17,0.00
2013-11-9,68,61,57,54,48,44,69,63,56,30.22,30.10,12,6,16,0.00
2013-11-10,66,60,57,51,48,46,72,66,53,30.34,30.21,7,2,11,0.00
2013-11-11,75,63,52,55,51,47,83,67,48,30.29,30.16,6,1,8,0.01
2013-11-12,64,49,37,57,31,14,81,52,27,30.70,30.27,14,9,26,0.00
2013-11-13,52,41,31,27,21,16,60,46,27,30.71,30.39,4,2,9,0.00
2013-11-14,58,48,36,44,29,22,66,50,25,30.39,30.02,10,5,16,0.00
2013-11-15,71,61,54,57,51,43,81,70,51,30.03,29.83,10,6,19,0.01
2013-11-16,76,69,61,67,61,56,84,76,63,29.85,29.66,14,9,24,0.00
2013-11-17,84,75,66,67,52,28,84,50,24,29.99,29.68,12,8,21,0.00
2013-11-18,69,63,57,35,25,19,39,24,15,30.17,29.99,12,7,19,0.00
2013-11-19,66,60,55,37,31,26,45,35,22,30.18,30.01,14,8,24,0.00
2013-11-20,63,56,48,53,40,32,80,55,41,30.03,29.89,13,7,18,0.00
2013-11-21,72,63,42,67,58,39,89,86,78,30.22,29.94,14,6,24,0.27
2013-11-22,42,36,34,39,32,30,88,86,82,30.48,30.21,15,8,24,0.21
2013-11-23,42,38,35,35,31,23,89,78,54,30.57,30.45,10,6,16,0.03
2013-11-24,37,33,32,26,22,18,73,64,55,30.62,30.38,11,5,16,0.01
2013-11-25,37,34,32,33,30,23,88,85,63,30.38,30.17,8,2,13,0.55
2013-11-26,51,41,34,33,29,22,88,65,41,30.41,30.16,13,8,25,0.00
2013-11-27,44,37,30,23,17,13,60,45,30,30.49,30.37,9,4,13,0.00
2013-11-28,52,40,32,28,24,19,64,52,32,30.48,30.37,7,3,11,0.00
2013-11-29,56,45,32,38,32,26,79,61,41,30.54,30.36,7,4,13,0.00
2013-11-30,65,53,43,50,43,34,82,70,55,30.36,30.15,12,5,21,0.00
2013-12-1,68,59,52,56,53,49,88,80,65,30.17,29.89,12,5,18,0.00
2013-12-2,68,57,46,51,47,42,87,71,47,29.89,29.66,5,1,8,0.00
2013-12-3,74,59,46,47,42,33,88,57,23,29.67,29.51,8,2,11,0.01
2013-12-4,78,62,48,53,44,34,74,54,32,29.88,29.57,7,1,15,0.00
2013-12-5,48,34,29,34,24,18,87,68,53,30.20,29.89,13,6,23,0.16
2013-12-6,32,27,24,28,22,18,88,82,77,30.56,30.13,0,0,0,0.08
2013-12-7,25,22,19,22,17,12,86,79,72,30.58,30.30,0,0,0,0.00
2013-12-8,32,29,24,28,25,21,89,87,86,30.30,30.08,0,0,0,0.00
2013-12-9,32,31,28,28,25,20,89,81,70,30.45,30.19,4,0,10,0.00
2013-12-10,36,28,20,24,19,13,78,68,52,30.56,30.38,3,0,9,0.11
2013-12-11,43,35,27,31,26,22,82,69,58,30.62,30.35,6,1,11,0.28
2013-12-12,48,38,27,32,27,22,83,65,47,30.64,30.32,5,0,9,0.14
2013-12-13,47,43,41,44,36,29,89,77,60,30.33,29.81,9,4,14,0.03
2013-12-14,47,41,33,44,34,26,90,78,64,30.35,29.80,14,4,24,0.01
2013-12-15,59,43,30,33,29,25,83,59,30,30.38,30.25,5,0,9,0.00
2013-12-16,66,50,38,37,33,31,77,54,30,30.26,30.16,7,2,14,0.00
2013-12-17,70,55,40,38,35,32,74,50,24,30.30,30.20,3,0,7,0.01
2013-12-18,69,57,43,46,40,34,77,56,30,30.26,30.00,13,5,23,0.00
2013-12-19,72,62,53,60,53,45,84,74,59,30.00,29.73,17,9,32,0.00
2013-12-20,68,55,34,61,50,32,89,83,70,29.84,29.74,12,5,22,0.02
2013-12-21,52,44,34,49,40,31,90,89,87,29.79,29.55,8,2,20,1.42
2013-12-22,45,36,30,42,28,24,90,74,59,30.42,29.79,12,7,20,0.00
2013-12-23,47,35,25,29,25,21,85,69,41,30.59,30.40,6,2,10,0.00
2013-12-24,50,38,26,34,28,21,83,66,47,30.58,30.29,10,5,20,0.00
2013-12-25,54,44,38,41,33,29,78,66,52,30.43,30.28,9,4,13,0.00
2013-12-26,54,42,31,35,32,27,88,70,41,30.48,30.35,4,2,7,0.00
2013-12-27,57,48,37,38,35,32,82,63,38,30.47,30.34,5,1,8,0.00
2013-12-28,59,50,40,42,37,33,83,62,45,30.34,29.98,8,4,13,0.00
2013-12-29,49,39,31,40,31,22,77,71,55,30.31,29.94,12,5,19,0.00
2013-12-30,41,34,29,22,18,15,69,53,40,30.45,30.27,8,4,15,0.00
2013-12-31,52,41,28,28,24,18,79,52,33,30.46,30.22,7,3,14,0.00
2014-1-1,68,48,34,47,34,24,77,59,39,30.22,29.88,17,8,33,0.00
2014-1-2,40,32,25,24,17,14,70,55,39,30.50,30.22,16,7,27,0.00